Flag for U.S.A. Weather past 2 weeks in Sacramento, California, U.S.A.

Now
94 °F

Sunny.


Feels Like: 90 °F
Forecast: 65 / 98 °F
Wind: 7 mph from Southwest

Location: Sacramento Executive Airport

Current Time: Jul 29, 2014 at 6:24:19 PM

Latest Report: Jul 29, 2014 at 5:53 PM


Visibility: 10 mi

Pressure: 29.89 "Hg

Humidity: 20%

Dew point: 47 °F

Location of SacramentoLocation

Historic Weather in Sacramento — Graph

°F

Sacramento temperature yesterday

Maximum temperature yesterday: 95 °F (at 3:53 PM)
Minimum temperature yesterday: 63 °F (at 5:53 AM)
Average temperature yesterday: 76 °F

Past Weeks' High & Low Weather Summary

 TemperatureHumidityPressure
High101 °F (Jul 14, 4:53 PM)90% (Jul 23, 5:53 AM)30.12 "Hg (Jul 23, 5:53 AM)
Low59 °F (Jul 19, 5:53 AM)8% (Jul 25, 4:53 PM)29.76 "Hg (Jul 25, 6:53 PM)
Average75 °F54%29.92 "Hg
* Reported Jul 14 4:53 PM — Jul 29 4:53 PM, Sacramento, Weather by CustomWeather, © 2014

Note: Actual official high and low records may vary slightly from our data, if they occured in-between our weather recording intervals... More about our weather records

Advertising

Sacramento weather history for previous 24 hours

 ConditionsComfort  
Time TempWeatherWind HumidityBarometerVisibility
4:53 PM
Jul 29
95 °FSunny.7 mph19%29.90 "Hg10 mi
3:53 PM97 °FSunny.9 mph21%29.92 "Hg10 mi
2:53 PM96 °FSunny.9 mph22%29.94 "Hg10 mi
1:53 PM94 °FSunny.No wind21%29.96 "Hg10 mi
12:53 PM90 °FSunny.5 mph29%29.99 "Hg10 mi
11:53 AM87 °FSunny.7 mph32%30.00 "Hg10 mi
10:53 AM83 °FSunny.6 mph38%30.01 "Hg10 mi
9:53 AM77 °FSunny.5 mph48%30.02 "Hg10 mi
8:53 AM70 °FSunny.6 mph59%30.01 "Hg10 mi
7:53 AM63 °FSunny.5 mph73%30.01 "Hg10 mi
6:53 AM62 °FClear.No wind73%30.00 "Hg10 mi
5:53 AM63 °FClear.5 mph68%29.99 "Hg10 mi
4:53 AM66 °FClear.10 mph61%29.98 "Hg10 mi
3:53 AM69 °FClear.6 mph51%29.98 "Hg10 mi
2:53 AM70 °FClear.6 mph47%29.97 "Hg10 mi
1:53 AM70 °FClear.6 mph46%29.97 "Hg10 mi
12:53 AM72 °FClear.7 mph41%29.96 "Hg10 mi
11:53 PM
Jul 28
73 °FClear.12 mph43%29.96 "Hg10 mi
10:53 PM74 °FClear.9 mph45%29.97 "Hg10 mi
9:53 PM76 °FClear.8 mph43%29.97 "Hg10 mi
8:53 PM77 °FSunny.8 mph44%29.96 "Hg10 mi
7:53 PM80 °FSunny.13 mph41%29.94 "Hg10 mi
6:53 PM83 °FSunny.12 mph37%29.93 "Hg10 mi
Weather by CustomWeather, © 2014

See weather overviewHow to use our weather pages